FW2316 Weather Reports


Display with metric or nautical units.
time (UTC)temp
F
wind
direction
speed
MPH
gust
MPH
rain 1hr
in
rain 24hr
in
rain mn
in
humidity
%
barometer
mb
20260503025100 71 288 0.0 3.0 0.00 0.00 0.00 60 1013.9
20260503024604 71 288 0.0 3.0 0.00 0.00 0.00 61 1013.9
20260503024056 72 288 2.0 4.0 0.00 0.00 0.00 60 1013.9
20260503023557 72 288 1.0 4.0 0.00 0.00 0.00 59 1014.0
20260503023056 73 288 1.0 5.0 0.00 0.00 0.00 59 1013.7
20260503022556 73 288 2.0 5.0 0.00 0.00 0.00 58 1013.8
20260503021605 74 289 3.0 7.0 0.00 0.00 0.00 57 1013.8
20260503021053 74 290 4.0 7.0 0.00 0.00 0.00 57 1013.7
20260503020553 74 289 2.0 7.0 0.00 0.00 0.00 57 1013.8
20260503020053 74 287 2.0 7.0 0.00 0.00 0.00 57 1013.7
20260503015552 74 287 3.0 8.0 0.00 0.00 0.00 57 1013.7
20260503015052 74 292 4.0 8.0 0.00 0.00 0.00 56 1013.7
20260503014603 75 285 4.0 8.0 0.00 0.00 0.00 56 1013.7
20260503014051 75 292 2.0 9.0 0.00 0.00 0.00 56 1013.7
20260503013551 75 288 3.0 9.0 0.00 0.00 0.00 56 1013.6
20260503013053 76 275 5.0 9.0 0.00 0.00 0.00 56 1013.7
20260503012550 75 268 2.0 6.0 0.00 0.00 0.00 57 1013.8
20260503011558 75 275 3.0 7.0 0.00 0.00 0.00 57 1013.7
20260503011049 76 288 3.0 8.0 0.00 0.00 0.00 56 1013.6
20260503010549 75 285 6.0 8.0 0.00 0.00 0.00 57 1013.7
20260503010103 75 285 3.0 9.0 0.00 0.00 0.00 57 1013.7
20260503005550 76 304 5.0 9.0 0.00 0.00 0.00 57 1013.9
20260503005046 76 286 2.0 7.0 0.00 0.00 0.00 58 1013.7
20260503004550 75 298 4.0 8.0 0.00 0.00 0.00 58 1013.7
20260503004047 76 312 3.0 8.0 0.00 0.00 0.00 59 1013.9
20260503003545 76 252 4.0 8.0 0.00 0.00 0.00 58 1013.9
20260503003055 76 273 4.0 11.0 0.00 0.00 0.00 57 1013.9
20260503002544 76 279 4.0 9.0 0.00 0.00 0.00 59 1013.9
20260503001543 75 278 3.0 9.0 0.00 0.00 0.00 59 1013.9
20260503001144 76 282 6.0 9.0 0.00 0.00 0.00 58 1013.9
20260503000540 75 275 5.0 10.0 0.00 0.00 0.00 61 1013.9
20260503000040 75 244 3.0 10.0 0.00 0.00 0.00 59 1014.0
20260502235543 76 257 5.0 10.0 0.00 0.00 0.00 58 1013.9
20260502235040 76 288 5.0 10.0 0.00 0.00 0.00 57 1014.0
20260502234541 76 265 3.0 8.0 0.00 0.00 0.00 58 1014.0
20260502234041 76 305 5.0 10.0 0.00 0.00 0.00 57 1014.2
20260502233538 76 273 3.0 12.0 0.00 0.00 0.00 58 1014.3
20260502233036 76 287 7.0 12.0 0.00 0.00 0.00 58 1014.3
20260502232535 74 210 0.0 4.0 0.00 0.00 0.00 60 1014.4
20260502231537 74 196 1.0 4.0 0.00 0.00 0.00 60 1014.5
20260502231034 73 213 1.0 3.0 0.00 0.00 0.00 62 1014.6
20260502230534 72 215 0.0 3.0 0.00 0.00 0.00 63 1014.7
20260502230034 72 223 1.0 3.0 0.00 0.00 0.00 63 1014.9
20260502225532 72 175 0.0 4.0 0.00 0.00 0.00 62 1014.9
20260502225031 72 199 0.0 3.0 0.00 0.00 0.00 62 1015.0
20260502224531 72 200 0.0 3.0 0.00 0.00 0.00 62 1015.1
20260502224034 72 219 0.0 3.0 0.00 0.00 0.00 61 1015.2
20260502223533 72 198 1.0 3.0 0.00 0.00 0.00 60 1015.2
20260502223030 72 217 0.0 3.0 0.00 0.00 0.00 60 1015.2
20260502222529 73 225 1.0 4.0 0.00 0.00 0.00 60 1015.3
20260502221526 73 19 0.0 4.0 0.00 0.00 0.00 59 1015.4
20260502221025 73 240 1.0 4.0 0.00 0.00 0.00 60 1015.5
20260502220525 72 265 0.0 6.0 0.00 0.00 0.00 60 1015.5
20260502220025 72 219 1.0 6.0 0.00 0.00 0.00 60 1015.6
20260502215525 72 198 2.0 6.0 0.00 0.00 0.00 59 1015.6
20260502215023 72 188 0.0 5.0 0.00 0.00 0.00 60 1015.7
20260502214521 72 244 1.0 4.0 0.00 0.00 0.00 61 1015.7
20260502214023 72 355 0.0 3.0 0.00 0.00 0.00 61 1015.8
20260502213521 71 213 0.0 4.0 0.00 0.00 0.00 61 1015.7
20260502213035 71 241 1.0 5.0 0.00 0.00 0.00 61 1015.8
20260502212519 72 202 0.0 4.0 0.00 0.00 0.00 60 1015.9
20260502211522 72 215 0.0 4.0 0.00 0.00 0.00 59 1016.0
20260502211018 72 259 0.0 7.0 0.00 0.00 0.00 62 1016.0
20260502210521 71 325 1.0 7.0 0.00 0.00 0.00 63 1016.0
20260502210016 71 200 0.0 2.0 0.00 0.00 0.00 62 1016.1
20260502205515 71 197 0.0 2.0 0.00 0.00 0.00 64 1016.1
20260502205015 70 225 0.0 2.0 0.00 0.00 0.00 63 1016.2
20260502204513 70 73 1.0 3.0 0.00 0.00 0.00 63 1016.2
20260502204012 70 63 0.0 3.0 0.00 0.00 0.00 62 1016.2
20260502203512 69 300 0.0 3.0 0.00 0.00 0.00 63 1016.2
20260502203012 69 40 0.0 1.0 0.00 0.00 0.00 65 1016.2
20260502202511 70 360 2.0 9.0 0.00 0.00 0.00 64 1016.3
20260502201523 69 313 6.0 9.0 0.00 0.00 0.00 66 1016.3
20260502201047 70 279 5.0 8.0 0.00 0.00 0.00 65 1016.4
20260502200512 68 283 3.0 8.0 0.00 0.00 0.00 68 1016.4
20260502200011 69 208 4.0 6.0 0.00 0.00 0.00 67 1016.4
20260502195508 68 251 2.0 8.0 0.00 0.00 0.00 70 1016.6
20260502195008 67 236 3.0 8.0 0.00 0.00 0.00 70 1016.6
20260502194512 67 230 1.0 9.0 0.00 0.00 0.00 71 1016.7
20260502194009 67 235 6.0 9.0 0.00 0.00 0.00 71 1016.7
20260502193505 66 252 4.0 7.0 0.00 0.00 0.00 70 1016.7
20260502193005 65 198 0.0 7.0 0.00 0.00 0.00 72 1016.7
20260502192503 66 192 3.0 7.0 0.00 0.00 0.00 70 1016.8
20260502191503 68 301 4.0 10.0 0.00 0.00 0.00 66 1017.0
20260502191002 65 303 4.0 10.0 0.00 0.00 0.00 72 1017.1
20260502190501 64 209 4.0 7.0 0.00 0.00 0.00 73 1017.1
20260502190001 63 220 1.0 6.0 0.00 0.00 0.00 72 1017.2
20260502185501 65 236 4.0 7.0 0.00 0.00 0.00 70 1017.2
20260502185059 64 261 2.0 8.0 0.00 0.00 0.00 73 1017.2
20260502184603 64 251 4.0 8.0 0.00 0.00 0.00 71 1017.4
20260502184059 64 307 2.0 7.0 0.00 0.00 0.00 73 1017.5
20260502183557 62 186 3.0 6.0 0.00 0.00 0.00 76 1017.4
20260502183058 63 184 3.0 6.0 0.00 0.00 0.00 73 1017.5
20260502182555 62 183 1.0 5.0 0.00 0.00 0.00 75 1017.4
20260502181615 61 178 2.0 5.0 0.00 0.00 0.00 77 1017.5
20260502181101 61 180 2.0 5.0 0.00 0.00 0.00 77 1017.5
20260502180557 62 189 2.0 5.0 0.00 0.00 0.00 75 1017.4
20260502164042 56 302 1.0 5.0 0.00 0.00 0.00 84 1017.4
20260502163541 55 300 0.0 5.0 0.00 0.00 0.00 85 1017.3
20260502163040 54 279 2.0 6.0 0.00 0.00 0.00 87 1017.4
20260502162539 54 255 1.0 5.0 0.00 0.00 0.00 87 1017.5
20260502161541 54 229 0.0 3.0 0.00 0.00 0.00 87 1017.5
20260502161037 54 229 0.0 4.0 0.00 0.00 0.00 88 1017.5
20260502160536 53 229 1.0 4.0 0.00 0.00 0.00 90 1017.6
20260502151528 51 296 2.0 4.0 0.00 0.00 0.00 93 1017.5
20260502151027 51 296 2.0 4.0 0.00 0.00 0.00 92 1017.5
20260502150527 50 296 0.0 3.0 0.00 0.00 0.00 92 1017.5
20260502130512 50 279 1.0 5.0 0.00 0.00 0.00 92 1017.4
20260502123508 50 292 0.0 4.0 0.00 0.00 0.00 92 1017.2
20260502123008 50 292 3.0 4.0 0.00 0.00 0.00 91 1017.1
20260502122507 50 292 1.0 5.0 0.00 0.00 0.00 91 1017.3
20260502121509 50 292 2.0 3.0 0.00 0.00 0.00 91 1017.3
20260502121010 51 292 0.0 5.0 0.00 0.00 0.00 91 1017.4
20260502120508 51 292 3.0 5.0 0.00 0.00 0.00 91 1017.4
20260502115505 50 290 2.0 4.0 0.00 0.00 0.00 91 1017.4
20260502115005 50 273 1.0 3.0 0.00 0.00 0.00 91 1017.8
20260502114505 50 273 0.0 3.0 0.00 0.00 0.00 91 1017.8
20260502114006 50 273 1.0 3.0 0.00 0.00 0.00 91 1018.0
20260502113507 51 273 0.0 3.0 0.00 0.00 0.00 91 1018.0
20260502113005 51 273 1.0 3.0 0.00 0.00 0.00 91 1018.0
20260502112506 51 273 1.0 3.0 0.00 0.00 0.00 90 1017.9
20260502111504 51 273 0.0 6.0 0.00 0.00 0.00 91 1017.9
20260502111003 51 269 2.0 6.0 0.00 0.00 0.00 90 1017.9
20260502110504 51 226 1.0 4.0 0.00 0.00 0.00 90 1018.0
20260502110003 51 223 1.0 3.0 0.00 0.00 0.00 90 1018.2
20260502105503 50 223 0.0 3.0 0.00 0.00 0.00 90 1018.3
20260502105003 51 223 0.0 5.0 0.00 0.00 0.00 90 1018.4
20260502104502 51 223 2.0 7.0 0.00 0.00 0.00 90 1018.6
20260502104001 51 223 4.0 7.0 0.00 0.00 0.00 89 1018.5
20260502103600 51 222 3.0 7.0 0.00 0.00 0.00 89 1018.5
20260502103102 51 221 3.0 8.0 0.00 0.00 0.00 89 1018.4
20260502102559 52 222 2.0 8.0 0.00 0.00 0.00 89 1018.3
20260502101557 52 215 4.0 7.0 0.00 0.00 0.00 89 1018.0
20260502101057 52 211 1.0 3.0 0.00 0.00 0.00 88 1017.7
20260502100555 52 211 1.0 3.0 0.00 0.00 0.00 88 1017.4
20260502091050 53 211 1.0 3.0 0.00 0.00 0.00 86 1017.5
20260502090552 54 211 2.0 3.0 0.00 0.00 0.00 85 1017.2
20260502071045 57 206 0.0 0.0 0.00 0.00 0.00 76 1017.4
20260502070545 57 206 0.0 0.0 0.00 0.00 0.00 75 1017.3
20260502070045 57 206 0.0 2.0 0.00 0.00 0.00 75 1017.4
20260502065545 57 206 0.0 2.0 0.00 0.00 0.00 74 1017.4
20260502064555 58 206 1.0 2.0 0.00 0.00 0.00 73 1017.3
20260502064043 58 206 0.0 3.0 0.00 0.00 0.00 73 1017.3
20260502063543 58 206 1.0 3.0 0.00 0.00 0.00 74 1017.4
20260502063043 58 206 2.0 3.0 0.00 0.00 0.00 74 1017.5
20260502062543 58 206 1.0 3.0 0.00 0.00 0.00 74 1017.5
20260502062041 59 206 1.0 3.0 0.00 0.00 0.00 73 1017.4
20260502061542 59 206 1.0 3.0 0.00 0.00 0.00 73 1017.4
20260502061040 59 206 0.0 5.0 0.00 0.00 0.00 73 1017.4
20260502060540 59 206 2.0 5.0 0.00 0.00 0.00 73 1017.6
20260502060043 60 213 2.0 6.0 0.00 0.00 0.00 72 1017.4
20260502055541 60 217 2.0 6.0 0.00 0.00 0.00 71 1017.3
20260502054548 61 225 2.0 8.0 0.00 0.00 0.00 70 1017.1
20260502054040 61 217 4.0 8.0 0.00 0.00 0.00 69 1017.2
20260502053543 61 264 2.0 4.0 0.00 0.00 0.00 69 1017.0
20260502053042 61 270 2.0 5.0 0.00 0.00 0.00 68 1017.0
20260502052541 61 270 3.0 5.0 0.00 0.00 0.00 68 1017.0
20260502052044 61 308 1.0 3.0 0.00 0.00 0.00 68 1016.9
20260502051541 61 308 1.0 3.0 0.00 0.00 0.00 68 1016.9
20260502051040 62 308 1.0 2.0 0.00 0.00 0.00 68 1016.8
20260502050543 61 308 0.0 0.0 0.00 0.00 0.00 70 1016.7
20260502050040 62 308 0.0 0.0 0.00 0.00 0.00 69 1016.7
20260502045540 62 308 0.0 2.0 0.00 0.00 0.00 69 1016.7
20260502044541 62 308 0.0 0.0 0.00 0.00 0.00 68 1016.7
20260502044038 62 308 0.0 0.0 0.00 0.00 0.00 66 1016.6
20260502043538 62 308 0.0 0.0 0.00 0.00 0.00 65 1016.6
20260502043041 62 308 0.0 0.0 0.00 0.00 0.00 65 1016.6
20260502042539 63 308 0.0 0.0 0.00 0.00 0.00 65 1016.5
20260502042038 63 308 0.0 0.0 0.00 0.00 0.00 65 1016.4
20260502041539 63 308 0.0 0.0 0.00 0.00 0.00 65 1016.3
20260502041042 63 308 0.0 0.0 0.00 0.00 0.00 65 1016.2
20260502040539 63 308 0.0 0.0 0.00 0.00 0.00 63 1016.2
20260502040051 63 308 0.0 0.0 0.00 0.00 0.00 64 1016.1
20260502035541 64 308 0.0 0.0 0.00 0.00 0.00 65 1016.1
20260502034537 64 42 0.0 1.0 0.00 0.00 0.00 60 1015.8
20260502034037 64 42 0.0 1.0 0.00 0.00 0.00 60 1015.8
20260502033537 64 41 0.0 0.0 0.00 0.00 0.00 60 1015.8
20260502033037 64 42 0.0 1.0 0.00 0.00 0.00 60 1015.7
20260502032537 65 42 0.0 1.0 0.00 0.00 0.00 60 1015.7
20260502032037 65 42 0.0 0.0 0.00 0.00 0.00 59 1015.7
20260502031545 65 42 0.0 1.0 0.00 0.00 0.00 60 1015.7
20260502031037 65 42 0.0 1.0 0.00 0.00 0.00 59 1015.6
20260502030537 66 41 0.0 1.0 0.00 0.00 0.00 59 1015.6
20260502030037 66 41 0.0 2.0 0.00 0.00 0.00 59 1015.4
20260502025537 66 41 1.0 2.0 0.00 0.00 0.00 59 1015.4